Weather History for KCQT - March, 2013

Change the Weather History Date:

Tuesday, March 26, 2013

  Actual Average Record
Temperature  
Mean Temperature 63 °F 61 °F  
Max Temperature 71 °F 71 °F 98 °F (1988)
Min Temperature 54 °F 51 °F 39 °F (1907)
Degree Days  
Heating Degree Days 2 5  
Month to date heating degree days 85 134  
Since 1 July heating degree days 860 909  
Cooling Degree Days 0 1  
Month to date cooling degree days 13 23  
Year to date cooling degree days 21 46  
Growing Degree Days 12 (Base 50)    
Moisture  
Dew Point 51 °F    
Average Humidity 73    
Maximum Humidity 93    
Minimum Humidity 53    
Precipitation  
Precipitation 0.00 in 0.06 in 1.53 in (1906)
Month to date precipitation 0.52 2.17  
Year to date precipitation 1.90 9.09  
Since 1 July precipitation 5.12  
Sea Level Pressure  
Sea Level Pressure 29.94 in    
Wind  
Wind Speed 1 mph (SW)    
Max Wind Speed 9 mph    
Max Gust Speed 15 mph    
Visibility 6 miles    
Events      
T = Trace of Precipitation, MM = Missing Value Source: NWS Daily Summary

Daily Weather History Graph

Daily Weather History Graph

Search for Another Location

Airport or City:

Trip Planner

Search our weather history database for the weather conditions in past years. The results will help you decide how hot, cold, wet, or windy it might be!

Date:

Astronomy

Mar. 26, 2013 Rise Set
Actual Time 6:48 AM PDT 7:09 PM PDT
Civil Twilight 6:23 AM PDT 7:34 PM PDT
Nautical Twilight 5:53 AM PDT 8:04 PM PDT
Astronomical Twilight 5:24 AM PDT 8:33 PM PDT
Moon 6:50 PM PDT (3/26) 6:06 AM PDT (3/26)
Length of Visible Light 13h 11m
Length of Day
12h 21m
Full, 100% of the Moon is Illuminated
Mar 26
Full
Mar 27
Full
Apr 2
Last Quarter
Apr 10
New
Apr 18
First Quarter

Hourly Weather History & Observations

Time (PDT) Temp. Dew Point Humidity Pressure Visibility Wind Dir Wind Speed Gust Speed Precip Events Conditions
12:47 AM 55.9 °F 52.0 °F 87% 29.95 in 6.0 mi Calm Calm - N/A   Clear
1:47 AM 55.0 °F 52.0 °F 89% 29.94 in 6.0 mi Calm Calm - N/A   Clear
2:14 AM 55.4 °F 51.8 °F 88% 29.94 in 6.0 mi Calm Calm - N/A   Partly Cloudy
2:33 AM 55.4 °F 51.8 °F 88% 29.94 in 6.0 mi Calm Calm - N/A   Mostly Cloudy
2:47 AM 55.0 °F 51.1 °F 86% 29.93 in 6.0 mi Calm Calm - N/A   Overcast
3:47 AM 55.0 °F 52.0 °F 89% 29.92 in 6.0 mi Calm Calm - N/A   Overcast
4:47 AM 55.9 °F 53.1 °F 90% 29.93 in 4.0 mi Calm Calm - N/A   Overcast
5:47 AM 55.9 °F 52.0 °F 87% 29.93 in 4.0 mi Calm Calm - N/A   Overcast
6:47 AM 55.9 °F 52.0 °F 87% 29.94 in 3.0 mi Calm Calm - N/A   Overcast
7:19 AM 55.4 °F 51.8 °F 88% 29.95 in 2.5 mi Calm Calm - N/A   Overcast
7:47 AM 57.0 °F 52.0 °F 83% 29.95 in 2.0 mi Calm Calm - N/A   Haze
8:01 AM 57.2 °F 51.8 °F 82% 29.96 in 2.0 mi Calm Calm - N/A   Haze
8:47 AM 57.9 °F 52.0 °F 81% 29.96 in 2.5 mi Calm Calm - N/A   Haze
9:12 AM 57.2 °F 51.8 °F 82% 29.96 in 3.0 mi SE 4.6 mph - N/A   Haze
9:47 AM 59.0 °F 52.0 °F 78% 29.97 in 3.0 mi East 4.6 mph - N/A   Haze
10:08 AM 60.8 °F 51.8 °F 72% 29.97 in 4.0 mi Calm Calm - N/A   Haze
10:34 AM 64.4 °F 51.8 °F 64% 29.97 in 4.0 mi Calm Calm - N/A   Haze
10:47 AM 64.0 °F 51.1 °F 63% 29.96 in 5.0 mi SE 3.5 mph - N/A   Haze
11:47 AM 68.0 °F 50.0 °F 52% 29.95 in 5.0 mi Calm Calm - N/A   Haze
12:47 PM 69.1 °F 51.1 °F 53% 29.94 in 5.0 mi Calm Calm - N/A   Haze
1:47 PM 68.0 °F 51.1 °F 55% 29.94 in 5.0 mi West 4.6 mph - N/A   Haze
2:47 PM 68.0 °F 51.1 °F 55% 29.93 in 7.0 mi Variable 4.6 mph - N/A   Clear
3:47 PM 64.9 °F 50.0 °F 58% 29.92 in 10.0 mi Calm Calm - N/A   Clear
4:47 PM 66.0 °F 50.0 °F 56% 29.91 in 10.0 mi West 4.6 mph - N/A   Clear
5:47 PM 63.0 °F 51.1 °F 65% 29.91 in 10.0 mi West 3.5 mph - N/A   Clear
6:47 PM 60.1 °F 52.0 °F 75% 29.91 in 10.0 mi Variable 3.5 mph - N/A   Clear
7:47 PM 57.9 °F 52.0 °F 81% 29.92 in 9.0 mi West 4.6 mph - N/A   Mostly Cloudy
8:47 PM 57.0 °F 52.0 °F 83% 29.94 in 9.0 mi Calm Calm - N/A   Mostly Cloudy
8:54 PM 57.2 °F 51.8 °F 82% 29.94 in 9.0 mi Variable 3.5 mph - N/A   Scattered Clouds
9:47 PM 57.0 °F 51.1 °F 81% 29.96 in 10.0 mi Calm Calm - N/A   Clear
10:47 PM 55.9 °F 50.0 °F 80% 29.96 in 10.0 mi Calm Calm - N/A   Clear
11:47 PM 55.9 °F 48.9 °F 77% 29.97 in 10.0 mi Calm Calm - N/A   Clear